User: anonymous   Login
Location: Star Hoppers Observatory
(42.7905°N, 83.6127°W)
Time: 06:33:19
(UTC-05:00)
Language:

NOSS 3-1 (A) - Orbit

View from above orbital plane
View from above orbital plane
View from above satellite
View from above satellite

Ground track
Ground track

The orbit data is extracted from the following two-line orbital elements,

1 26905U 01040A   18014.68594722 0.00000000  00000-0  00000-0 0    07
2 26905  63.4140 213.5517 0388000 358.6675   1.3325 13.40756457    01
Epoch (UTC): 14 January 2018 16:27:45
Eccentricity: 0.0388000
inclination: 63.4140°
perigee height: 816 km
apogee height: 1397 km
right ascension of ascending node: 213.5517°
argument of perigee: 358.6675°
revolutions per day: 13.40756457
mean anomaly at epoch: 1.3325°
orbit number at epoch: 0

The dashed part of the orbit path shows where the satellite is in the earth's shadow,  

DLR